Iliamna, AK

2:22 PM AKST on February 23, 2018 (GMT -0900)
Iliamna

Weather History for PAIL - March, 2013

Change the Weather History Date:

Friday, March 1, 2013

  Actual Average Record
Temperature  
Mean Temperature 13 °F -  
Max Temperature 23 °F 29 °F 49 °F (1991)
Min Temperature 1 °F 12 °F -30 °F (1956)
Degree Days  
Heating Degree Days 52    
Moisture  
Dew Point 9 °F    
Average Humidity 78    
Maximum Humidity 96    
Minimum Humidity 52    
Precipitation  
Precipitation 0.00 in - - ()
Sea Level Pressure  
Sea Level Pressure 29.79 in    
Wind  
Wind Speed 4 mph (NW)    
Max Wind Speed 7 mph    
Max Gust Speed -    
Visibility 10 miles    
Events      
Averages and records for this station are not official NWS values.
T = Trace of Precipitation, MM = Missing Value Source: NWS Daily Summary

Daily Weather History Graph

Daily Weather History Graph

Search for Another Location

Airport or City:

Trip Planner

Search our weather history database for the weather conditions in past years. The results will help you decide how hot, cold, wet, or windy it might be!

Date:

Astronomy

Mar. 01, 2013 Rise Set
Actual Time 8:16 AM AKST 6:48 PM AKST
Civil Twilight 7:34 AM AKST 7:30 PM AKST
Nautical Twilight 6:46 AM AKST 8:18 PM AKST
Astronomical Twilight 5:58 AM AKST 9:07 PM AKST
Moon No Moon Rise 8:55 AM AKST (3/1)
Length of Visible Light 11h 55m
Length of Day
10h 32m
Waning Gibbous, 82% of the Moon is Illuminated
Mar 1
Waning Gibbous
Mar 4
Last Quarter
Mar 11
New
Mar 19
First Quarter
Mar 27
Full

Hourly Weather History & Observations

Time (AKST) Temp. Windchill Dew Point Humidity Pressure Visibility Wind Dir Wind Speed Gust Speed Precip Events Conditions
12:53 AM 21.0 °F 16.2 °F 19.9 °F 96% 29.55 in 10.0 mi NNW 3.5 mph - N/A   Mostly Cloudy
1:53 AM 21.0 °F 12.4 °F 17.1 °F 85% 29.57 in 10.0 mi West 6.9 mph - N/A   Overcast
2:53 AM 19.9 °F 13.4 °F 15.1 °F 81% 29.59 in 10.0 mi WNW 4.6 mph - N/A   Mostly Cloudy
3:53 AM 19.0 °F 10.0 °F 14.0 °F 81% 29.61 in 10.0 mi WNW 6.9 mph - N/A   Overcast
4:53 AM 19.9 °F - 12.9 °F 74% 29.64 in 10.0 mi Calm Calm - N/A   Overcast
5:53 AM 17.1 °F 11.7 °F 10.9 °F 77% 29.67 in 10.0 mi NNW 3.5 mph - N/A   Mostly Cloudy
7:53 AM 12.0 °F 2.7 °F 6.1 °F 77% 29.71 in 10.0 mi NNW 5.8 mph - N/A   Clear
8:53 AM 10.0 °F 1.8 °F 5.0 °F 80% 29.73 in 10.0 mi WNW 4.6 mph - N/A   Clear
9:53 AM 10.9 °F 2.9 °F 6.1 °F 81% 29.75 in 10.0 mi SSW 4.6 mph - N/A   Clear
10:53 AM 14.0 °F 8.2 °F 6.1 °F 71% 29.78 in 10.0 mi SW 3.5 mph - N/A   Clear
11:53 AM 16.0 °F - 7.0 °F 68% 29.81 in 10.0 mi Calm Calm - N/A   Clear
12:53 PM 19.0 °F 13.9 °F 8.1 °F 62% 29.83 in 10.0 mi South 3.5 mph - N/A   Clear
1:53 PM 18.0 °F 9.8 °F 10.0 °F 71% 29.85 in 10.0 mi South 5.8 mph - N/A   Partly Cloudy
2:53 PM 19.0 °F 11.1 °F 9.0 °F 65% 29.86 in 10.0 mi SW 5.8 mph - N/A   Partly Cloudy
3:53 PM 21.0 °F - 10.9 °F 65% 29.87 in 10.0 mi Calm Calm - N/A   Clear
4:53 PM 18.0 °F 9.8 °F 9.0 °F 68% 29.88 in 10.0 mi East 5.8 mph - N/A   Clear
5:53 PM 15.1 °F 7.7 °F 9.0 °F 77% 29.91 in 10.0 mi East 4.6 mph - N/A   Clear
6:53 PM 10.9 °F 1.4 °F 7.0 °F 84% 29.91 in 10.0 mi NNE 5.8 mph - N/A   Partly Cloudy
7:53 PM 9.0 °F 0.6 °F 7.0 °F 92% 29.93 in 10.0 mi NE 4.6 mph - N/A   Partly Cloudy
8:53 PM 8.1 °F -0.5 °F 7.0 °F 95% 29.94 in 10.0 mi NE 4.6 mph - N/A   Partly Cloudy
9:53 PM 7.0 °F -1.7 °F 3.9 °F 87% 29.94 in 10.0 mi NNE 4.6 mph - N/A   Clear
10:53 PM 3.0 °F -6.4 °F 1.0 °F 91% 29.95 in 10.0 mi North 4.6 mph - N/A   Clear
11:53 PM 1.9 °F -10.6 °F -0.0 °F 91% 29.97 in 10.0 mi NNW 6.9 mph - N/A   Mostly Cloudy